Western Head, Nova Scotia

2:08 AM ADT on April 24, 2017 (GMT -0300)
Western Head

Weather History for CWWE - October, 2012

Change the Weather History Date:

Wednesday, October 31, 2012

  Actual Average Record
Temperature  
Mean Temperature 58 °F -  
Max Temperature 61 °F - - ()
Min Temperature 56 °F - - ()
Degree Days  
Heating Degree Days 6    
Growing Degree Days 8 (Base 50)    
Moisture  
Dew Point 57 °F    
Average Humidity 98    
Maximum Humidity 99    
Minimum Humidity 94    
Precipitation  
Precipitation 0.91 in - - ()
Sea Level Pressure  
Sea Level Pressure 29.74 in    
Wind  
Wind Speed 18 mph ()    
Max Wind Speed 26 mph    
Max Gust Speed 36 mph    
T = Trace of Precipitation, MM = Missing Value Source: Averaged Metar Reports

Daily Weather History Graph

Daily Weather History Graph

Search for Another Location

Airport or City:

Trip Planner

Search our weather history database for the weather conditions in past years. The results will help you decide how hot, cold, wet, or windy it might be!

Date:

Astronomy

Oct. 31, 2012 Rise Set
Actual Time 7:54 AM ADT 6:09 PM ADT
Civil Twilight 7:24 AM ADT 6:39 PM ADT
Nautical Twilight 6:50 AM ADT 7:13 PM ADT
Astronomical Twilight 6:16 AM ADT 7:47 PM ADT
Moon 7:13 PM ADT (10/31) 9:35 AM ADT (10/31)
Length of Visible Light 11h 15m
Length of Day
10h 15m
Full, 97% of the Moon is Illuminated
Oct 31
Full
Nov 6
Last Quarter
Nov 13
New
Nov 20
First Quarter
Nov 28
Full

Hourly Weather History & Observations

Time (ADT) Temp. Dew Point Humidity Pressure Visibility Wind Dir Wind Speed Gust Speed Precip Events Conditions
12:00 AM 59 °F 58 °F 94% 29.89 in - ESE 24.2 mph - -  
12:00 AM 58.6 °F 57.7 °F 97% 29.89 in - ESE 24.2 mph 29.9 mph N/A   Unknown
1:00 AM 59.0 °F 57.9 °F 96% 29.87 in - ESE 26.5 mph 35.7 mph N/A   Unknown
2:00 AM 58.6 °F 57.7 °F 97% 29.85 in - ESE 25.3 mph 31.1 mph N/A   Unknown
3:00 AM 59 °F 58 °F 95% 29.84 in - ESE 26.5 mph - -  
3:00 AM 58.8 °F 57.9 °F 97% 29.84 in - ESE 26.5 mph 32.2 mph N/A   Unknown
4:00 AM 58.6 °F 57.9 °F 97% 29.83 in - ESE 23.0 mph - 0.04 in   Unknown
5:00 AM 58.5 °F 57.9 °F 98% 29.81 in - ESE 25.3 mph - N/A   Unknown
6:00 AM 59 °F 58 °F 97% 29.79 in - ESE 25.3 mph - -  
6:00 AM 58.8 °F 58.3 °F 98% 29.79 in - ESE 25.3 mph - 0.05 in   Unknown
7:00 AM 59.0 °F 58.5 °F 98% 29.80 in - SE 20.7 mph - 0.39 in   Unknown
8:00 AM 59.0 °F 58.6 °F 99% 29.79 in - ESE 19.6 mph - 0.19 in   Unknown
9:00 AM 57 °F 56 °F 97% 29.80 in - ESE 18.4 mph - -  
9:00 AM 56.7 °F 56.3 °F 99% 29.80 in - ESE 18.4 mph - 0.22 in   Unknown
10:00 AM 56.8 °F 56.5 °F 99% 29.76 in - East 15.0 mph - 0.29 in   Unknown
11:00 AM 57.4 °F 57.2 °F 99% 29.76 in - East 19.6 mph 25.3 mph 0.13 in   Unknown
12:00 PM 57 °F 56 °F 97% 29.74 in - East 11.5 mph - -  
12:00 PM 56.7 °F 56.5 °F 99% 29.74 in - East 11.5 mph - N/A   Unknown
1:00 PM 57.0 °F 56.7 °F 99% 29.73 in - East 11.5 mph - N/A   Unknown
2:00 PM 58.6 °F 58.3 °F 99% 29.69 in - NE 4.6 mph - N/A   Unknown
3:00 PM 60 °F 59 °F 96% 29.66 in - ESE 17.3 mph - -  
3:00 PM 59.9 °F 59.2 °F 97% 29.66 in - ESE 17.3 mph - N/A   Unknown
4:00 PM 58.5 °F 57.6 °F 97% 29.67 in - SE 18.4 mph - N/A   Unknown
5:00 PM 58.1 °F 57.2 °F 97% 29.66 in - ESE 12.7 mph - N/A   Unknown
6:00 PM 57.9 °F 57.2 °F 97% 29.65 in - ESE 11.5 mph - N/A   Unknown
7:00 PM 57.9 °F 57.6 °F 99% 29.64 in - SE 13.8 mph - N/A   Unknown
8:00 PM 57.4 °F 57.0 °F 99% 29.62 in - SSE 11.5 mph - N/A   Unknown
9:00 PM 57 °F 57 °F 98% 29.61 in - SSE 10.4 mph - -  
9:00 PM 57.0 °F 56.7 °F 99% 29.61 in - SSE 10.4 mph - N/A   Unknown
10:00 PM 57.0 °F 56.7 °F 99% 29.62 in - SSE 13.8 mph - N/A   Unknown
11:00 PM 56.7 °F 56.3 °F 99% 29.62 in - South 12.7 mph - N/A   Unknown